Regional Weather Roundup
Issued by NWS Little Rock, AR

Home | Current Version | Previous Version | Text Only | Print | Product List | Glossary Off
Versions: 1 2 3 4 5 6 7 8 9 10 11 12 13 14 15 16 17 18 19 20 21 22 23 24 25 26 27 28 29 30 31 32 33 34 35 36 37 38 39 40 41 42 43 44 45 46 47 48 49 50

000
ASUS44 KLZK 241105
RWRLZK

WEATHER ROUNDUP FOR ARKANSAS
NATIONAL WEATHER SERVICE LITTLE ROCK AR
600 AM CDT TUE MAY 24 2016

NOTE: "FAIR" INDICATES FEW OR NO CLOUDS BELOW 12,000 FEET WITH NO
SIGNIFICANT WEATHER AND/OR OBSTRUCTIONS TO VISIBILITY.

ARZ001-003-010-029-241200-
NORTHWEST ARKANSAS

CITY           SKY/WX    TMP DP  RH WIND       PRES   REMARKS
FAYETTEVILLE   CLOUDY    67  64  90 CALM      29.95R
FORT SMITH     CLOUDY    68  64  87 NE7       29.92R
HARRISON       CLOUDY    65  61  87 SE6       29.97R
BENTONVILLE    CLOUDY    66  61  82 S5        29.95R
ROGERS           N/A     64  62  93 SE6       29.95R
SILOAM SPGS    CLOUDY    66  57  72 SE7       29.94R
HIGHFILL       CLOUDY    66  64  93 SE3       29.94R
SPRINGDALE     MOCLDY    66  64  94 SE6       29.97
$$

ARZ004-005-016-241200-
NORTH CENTRAL ARKANSAS

CITY           SKY/WX    TMP DP  RH WIND       PRES   REMARKS
BATESVILLE     CLOUDY    64  63  94 SE3       29.99R THUNDER
FLIPPIN        CLOUDY   N/A N/A N/A CALM      29.93S
MTN HOME       CLOUDY    62  60  93 E5        29.96R
$$

ARZ040-041-241200-
WEST CENTRAL ARKANSAS

CITY           SKY/WX    TMP DP  RH WIND       PRES   REMARKS
MENA           CLOUDY    73  70  88 SW5       29.95F
MOUNT IDA      CLOUDY    73  64  73 VRB5      29.95R
$$

ARZ009-017-025-026-028-241200-
NORTHEAST ARKANSAS

CITY           SKY/WX    TMP DP  RH WIND       PRES   REMARKS
CORNING          N/A     64  57  77 SE6       29.98F
JONESBORO      PTCLDY    65  56  72 CALM      29.99R
NEWPORT        PTCLDY    65  58  78 SE3       30.00R
WALNUT RIDGE   CLEAR     66  54  63 S6        29.98S
BLYTHEVILLE    PTCLDY    67  55  65 S7        30.00S
$$

ARZ022-023-033-042-044-241200-
CENTRAL ARKANSAS

CITY           SKY/WX    TMP DP  RH WIND       PRES   REMARKS
LITTLE ROCK    CLOUDY    67  61  81 CALM      29.98R
N LITTLE ROCK    N/A     67  61  79 CALM      29.96R
JACKSONVILLE   CLOUDY    62  62  98 MISG      29.98R
SEARCY         PTCLDY    61  61 100 CALM      30.01R
HOT SPRINGS    CLOUDY    72  63  73 SE3       29.98R
RUSSELLVILLE   CLOUDY    69  62  78 VRB3      29.95S
CLINTON        CLOUDY    63  63 100 CALM      29.99R
$$

ARZ036-241200-
EAST ARKANSAS

CITY           SKY/WX    TMP DP  RH WIND       PRES   REMARKS
WEST MEMPHIS   CLOUDY    66  58  75 SE5       29.99S
$$

ARZ050-053-066-070-073-241200-
SOUTHWEST ARKANSAS

CITY           SKY/WX    TMP DP  RH WIND       PRES   REMARKS
ARKADELPHIA    FAIR      67  67 100 CALM      29.98R
CAMDEN         PTCLDY    63  59  88 CALM      29.98R
TEXARKANA      PTCLDY    68  65  90 SE6       29.96R
EL DORADO      CLEAR     65  62  90 CALM      29.98R
DE QUEEN       CLOUDY    71  67  87 E5        29.93R
$$

ARZ056-057-069-241200-
SOUTHEAST ARKANSAS

CITY           SKY/WX    TMP DP  RH WIND       PRES   REMARKS
PINE BLUFF     CLOUDY    63  60  90 SE3       30.00R
STUTTGART      CLOUDY    66  57  72 S6        30.00R
MONTICELLO     CLOUDY    65  57  75 S5        30.00R

$$





USA.gov is the U.S. government's official web portal to all federal, state and local government web resources and services.